User: anonymous   Login
Location: Unspecified
(0.0000°N, 0.0000°E)
Time: 19:50:04
(UTC+00:00)
Language:

Transit 2A - Orbit

View from above orbital plane
View from above orbital plane
View from above satellite
View from above satellite

Ground track
Ground track

The orbit data is extracted from the following two-line orbital elements,

1    45U 60007A   17268.92690923 -.00000063 +00000-0 +11371-4 0  9993
2    45 066.6935 124.1849 0260481 318.9973 039.1794 14.33568275923175
Epoch (UTC): 25 September 2017 22:14:44
Eccentricity: 0.0260481
inclination: 66.6935°
perigee height: 593 km
apogee height: 966 km
right ascension of ascending node: 124.1849°
argument of perigee: 318.9973°
revolutions per day: 14.33568275
mean anomaly at epoch: 39.1794°
orbit number at epoch: 92317

The dashed part of the orbit path shows where the satellite is in the earth's shadow,  

DLR